Flag for Germany Weather past 2 weeks in Burg, Saxony-Anhalt, Germany

Now
80 °F

Scattered clouds.


Feels Like: 79 °F
Forecast: 53 / 80 °F
Wind: 2 mph from Northeast

Location: Magdeburg

Current Time: Aug 1, 2015 at 6:34:40 PM

Latest Report: Aug 1, 2015 at 6:00 PM


Visibility: 34 mi

Pressure: 29.96 "Hg

Humidity: 30%

Dew point: 46 °F

Location of BurgLocation

Historic Weather in Burg — Graph

°F

Burg temperature yesterday

Maximum temperature yesterday: 66 °F (at 6:00 PM)
Minimum temperature yesterday: 51 °F (at 4:00 AM)
Average temperature yesterday: 58 °F

Past Weeks' High & Low Weather Summary

 TemperatureHumidityPressure
High90 °F (Jul 17, 6:00 PM)97% (Jul 19, 10:00 AM)30.12 "Hg (Jul 19, 10:00 AM)
Low47 °F (Aug 1, 3:00 AM)33% (Aug 1, 5:00 PM)29.54 "Hg (Jul 25, 2:00 PM)
Average66 °F66%29.86 "Hg
* Reported Jul 17 6:00 PM — Aug 1 5:00 PM, Burg, Weather by CustomWeather, © 2015

Note: Actual official high and low records may vary slightly from our data, if they occured in-between our weather recording intervals... More about our weather records

Advertising

Burg weather history for previous 24 hours

 ConditionsComfort  
Time TempWeatherWind HumidityBarometerVisibility
5:00 PM
Sat, Aug 1
80 °FPartly sunny.3 mph33%29.96 "Hg37 mi
4:00 PM78 °FPartly sunny.3 mph35%29.98 "Hg37 mi
3:00 PM77 °FScattered clouds.3 mph37%29.99 "Hg37 mi
2:00 PM74 °FScattered clouds.3 mph38%30.01 "Hg37 mi
1:00 PM71 °FPartly sunny.2 mph41%30.03 "Hg37 mi
12:00 PM71 °FScattered clouds.3 mph41%30.03 "Hg37 mi
11:00 AM67 °FPartly sunny.3 mph45%30.05 "Hg37 mi
10:00 AM64 °FPartly sunny.3 mph50%30.05 "Hg28 mi
9:00 AM59 °FPartly sunny.2 mph60%30.06 "Hg22 mi
8:00 AM52 °FOvercast.2 mph83%30.06 "Hg16 mi
7:00 AM48 °FOvercast.1 mph91%30.07 "Hg16 mi
4:00 AM47 °FOvercast.1 mph90%30.10 "Hg12 mi
3:00 AM47 °FFog.1 mph90%30.10 "Hg2 mi
2:00 AM47 °FFog.1 mph88%30.10 "Hg2 mi
1:00 AM48 °FFog.1 mph85%30.10 "Hg4 mi
12:00 AM49 °FPassing clouds.1 mph83%30.09 "Hg18 mi
11:00 PM
Fri, Jul 31
51 °FClear.1 mph80%30.09 "Hg17 mi
10:00 PM54 °FClear.1 mph72%30.09 "Hg22 mi
9:00 PM58 °FScattered clouds.2 mph61%30.09 "Hg37 mi
8:00 PM63 °FScattered clouds.1 mph45%30.09 "Hg37 mi
7:00 PM64 °FPartly sunny.1 mph42%30.08 "Hg37 mi
6:00 PM66 °FPartly sunny.2 mph39%30.08 "Hg37 mi
Weather by CustomWeather, © 2015

See weather overviewHow to use our weather pages